Stündliche Wetter Abazivka

Heute, 23 Juni, Mittwoch

Zeit Temperatur Niederschläge Wind Luftdruck Luftfeuchtigkeit
00:00 +25°C° 0 mm 5 m/S 749 mmHg 71%
01:00 +23°C° 0 mm 5 m/S 749 mmHg 71%
02:00 +23°C° 0 mm 4 m/S 749 mmHg 71%
03:00 +22°C° 0 mm 4 m/S 749 mmHg 74%
04:00 +21°C° 0 mm 4 m/S 749 mmHg 77%
05:00 +21°C° 0 mm 3 m/S 749 mmHg 80%
06:00 +22°C° 0 mm 4 m/S 749 mmHg 78%
07:00 +23°C° 0 mm 4 m/S 750 mmHg 75%
08:00 +26°C° 0 mm 4 m/S 750 mmHg 73%
09:00 +27°C° 0 mm 4 m/S 750 mmHg 69%
10:00 +28°C° 0 mm 4 m/S 750 mmHg 66%
11:00 +30°C° 0 mm 4 m/S 751 mmHg 62%
12:00 +30°C° 0 mm 4 m/S 751 mmHg 62%
13:00 +30°C° 0 mm 4 m/S 751 mmHg 61%
14:00 +31°C° 0 mm 3 m/S 751 mmHg 61%
15:00 +31°C° 0 mm 3 m/S 751 mmHg 62%
16:00 +31°C° 0 mm 2 m/S 751 mmHg 64%
17:00 +31°C° 0 mm 2 m/S 751 mmHg 66%
18:00 +29°C° 0 mm 2 m/S 751 mmHg 69%
19:00 +28°C° 0 mm 3 m/S 751 mmHg 73%
20:00 +26°C° 0 mm 3 m/S 751 mmHg 76%
21:00 +25°C° 0 mm 3 m/S 751 mmHg 79%
22:00 +25°C° 0 mm 3 m/S 751 mmHg 83%
23:00 +24°C° 0 mm 3 m/S 751 mmHg 86%

Morgen, 24 Juni, Donnerstag

Zeit Temperatur Niederschläge Wind Luftdruck Luftfeuchtigkeit
00:00 +24°C° 0 mm 3 m/S 751 mmHg 85%
01:00 +22°C° 0 mm 3 m/S 751 mmHg 84%
02:00 +22°C° 0 mm 3 m/S 751 mmHg 83%
03:00 +22°C° 0 mm 4 m/S 751 mmHg 81%
04:00 +22°C° 0 mm 4 m/S 751 mmHg 79%
05:00 +22°C° 0 mm 5 m/S 751 mmHg 78%
06:00 +23°C° 0 mm 5 m/S 751 mmHg 74%
07:00 +26°C° 0 mm 6 m/S 751 mmHg 71%
08:00 +27°C° 0 mm 6 m/S 751 mmHg 67%
09:00 +27°C° 0 mm 6 m/S 751 mmHg 65%
10:00 +28°C° 0 mm 6 m/S 751 mmHg 63%
11:00 +29°C° 0 mm 5 m/S 751 mmHg 62%
12:00 +30°C° 0 mm 5 m/S 751 mmHg 59%
13:00 +32°C° 0 mm 5 m/S 751 mmHg 57%
14:00 +32°C° 0 mm 5 m/S 751 mmHg 55%
15:00 +32°C° 0 mm 4 m/S 751 mmHg 58%
16:00 +32°C° 0 mm 4 m/S 751 mmHg 61%
17:00 +31°C° 0 mm 3 m/S 751 mmHg 64%
18:00 +29°C° 0 mm 3 m/S 751 mmHg 68%
19:00 +27°C° 0 mm 3 m/S 751 mmHg 72%
20:00 +26°C° 0 mm 3 m/S 751 mmHg 77%
21:00 +26°C° 0 mm 2 m/S 751 mmHg 77%
22:00 +25°C° 0 mm 2 m/S 751 mmHg 78%
23:00 +25°C° 0 mm 2 m/S 751 mmHg 78%

übermorgen, 25 Juni, Freitag

Zeit Temperatur Niederschläge Wind Luftdruck Luftfeuchtigkeit
00:00 +24°C° 0 mm 2 m/S 751 mmHg 81%
01:00 +24°C° 0 mm 2 m/S 751 mmHg 85%
02:00 +23°C° 0 mm 2 m/S 750 mmHg 88%
03:00 +22°C° 0 mm 3 m/S 750 mmHg 87%
04:00 +24°C° 0 mm 3 m/S 750 mmHg 86%
05:00 +24°C° 0 mm 3 m/S 750 mmHg 85%
06:00 +25°C° 0 mm 3 m/S 750 mmHg 83%
07:00 +25°C° 0 mm 4 m/S 750 mmHg 81%
08:00 +26°C° 0 mm 4 m/S 750 mmHg 79%
09:00 +28°C° 0 mm 4 m/S 750 mmHg 72%
10:00 +30°C° 0 mm 5 m/S 750 mmHg 65%
11:00 +33°C° 0 mm 5 m/S 750 mmHg 58%
12:00 +34°C° 0 mm 5 m/S 750 mmHg 55%
13:00 +34°C° 0 mm 5 m/S 749 mmHg 52%
14:00 +35°C° 0 mm 5 m/S 749 mmHg 50%
15:00 +34°C° 0 mm 5 m/S 749 mmHg 54%
16:00 +34°C° 0 mm 5 m/S 749 mmHg 58%
17:00 +33°C° 0 mm 4 m/S 749 mmHg 63%
18:00 +30°C° 0 mm 4 m/S 749 mmHg 68%
19:00 +29°C° 0 mm 4 m/S 748 mmHg 74%
20:00 +27°C° 0 mm 3 m/S 748 mmHg 79%
21:00 +26°C° 0 mm 3 m/S 748 mmHg 81%
22:00 +26°C° 0 mm 3 m/S 748 mmHg 82%
23:00 +25°C° 0 mm 3 m/S 748 mmHg 83%

26 Juni, Samstag

Zeit Temperatur Niederschläge Wind Luftdruck Luftfeuchtigkeit
00:00 +24°C° 0 mm 3 m/S 748 mmHg 84%
01:00 +24°C° 0 mm 3 m/S 748 mmHg 85%
02:00 +24°C° 0 mm 3 m/S 748 mmHg 87%
03:00 +24°C° 0 mm 2 m/S 748 mmHg 87%
04:00 +24°C° 0 mm 2 m/S 748 mmHg 88%
05:00 +24°C° 0 mm 2 m/S 748 mmHg 88%
06:00 +26°C° 0 mm 3 m/S 748 mmHg 81%
07:00 +27°C° 0 mm 3 m/S 748 mmHg 75%
08:00 +29°C° 0 mm 4 m/S 748 mmHg 68%
09:00 +30°C° 0 mm 4 m/S 748 mmHg 63%
10:00 +32°C° 0 mm 4 m/S 747 mmHg 58%
11:00 +34°C° 0 mm 4 m/S 747 mmHg 53%
12:00 +34°C° 0 mm 4 m/S 747 mmHg 52%
13:00 +34°C° 0 mm 4 m/S 747 mmHg 51%
14:00 +35°C° 0 mm 4 m/S 747 mmHg 50%
15:00 +34°C° 0 mm 4 m/S 747 mmHg 55%
16:00 +33°C° 0 mm 3 m/S 747 mmHg 59%
17:00 +33°C° 0 mm 3 m/S 747 mmHg 64%
18:00 +30°C° 0 mm 3 m/S 747 mmHg 68%
19:00 +29°C° 0 mm 3 m/S 747 mmHg 73%
20:00 +27°C° 0 mm 3 m/S 746 mmHg 77%
21:00 +27°C° 0 mm 3 m/S 746 mmHg 79%
22:00 +26°C° 0 mm 2 m/S 746 mmHg 81%
23:00 +26°C° 0 mm 2 m/S 746 mmHg 84%

27 Juni, Sonntag

Zeit Temperatur Niederschläge Wind Luftdruck Luftfeuchtigkeit
00:00 +25°C° 0 mm 2 m/S 746 mmHg 84%
01:00 +25°C° 0 mm 1 m/S 746 mmHg 85%
02:00 +24°C° 0 mm 1 m/S 746 mmHg 86%
03:00 +24°C° 0 mm 1 m/S 746 mmHg 86%
04:00 +24°C° 0 mm 1 m/S 746 mmHg 85%
05:00 +25°C° 0 mm 1 m/S 746 mmHg 85%
06:00 +26°C° 0 mm 1 m/S 746 mmHg 80%
07:00 +28°C° 0 mm 1 m/S 746 mmHg 75%
08:00 +29°C° 0 mm 1 m/S 746 mmHg 70%
09:00 +30°C° 0 mm 1 m/S 747 mmHg 66%
10:00 +31°C° 0 mm 2 m/S 747 mmHg 62%
11:00 +32°C° 0 mm 2 m/S 747 mmHg 58%
12:00 +34°C° 0 mm 2 m/S 747 mmHg 55%
13:00 +34°C° 0 mm 2 m/S 747 mmHg 53%
14:00 +35°C° 0 mm 2 m/S 747 mmHg 50%
15:00 +34°C° 0 mm 2 m/S 746 mmHg 53%
16:00 +32°C° 0 mm 2 m/S 746 mmHg 56%
17:00 +32°C° 0 mm 2 m/S 746 mmHg 59%
18:00 +29°C° 1.9 mm 2 m/S 747 mmHg 70%
19:00 +25°C° 1.9 mm 3 m/S 747 mmHg 81%
20:00 +21°C° 1.9 mm 3 m/S 748 mmHg 91%
21:00 +21°C° 0.2 mm 3 m/S 747 mmHg 91%
22:00 +21°C° 0.2 mm 3 m/S 747 mmHg 91%
23:00 +20°C° 0.2 mm 3 m/S 747 mmHg 90%

28 Juni, Montag

Zeit Temperatur Niederschläge Wind Luftdruck Luftfeuchtigkeit
00:00 +20°C° 0 mm 3 m/S 747 mmHg 91%
01:00 +20°C° 0 mm 3 m/S 747 mmHg 92%
02:00 +20°C° 0 mm 3 m/S 747 mmHg 93%
03:00 +20°C° 0 mm 3 m/S 747 mmHg 93%
04:00 +20°C° 0 mm 2 m/S 747 mmHg 94%
05:00 +20°C° 0 mm 2 m/S 747 mmHg 94%
06:00 +22°C° 0 mm 3 m/S 747 mmHg 89%
07:00 +24°C° 0 mm 3 m/S 748 mmHg 84%
08:00 +26°C° 0 mm 3 m/S 748 mmHg 79%
09:00 +27°C° 0 mm 4 m/S 748 mmHg 76%
10:00 +28°C° 0 mm 4 m/S 748 mmHg 72%
11:00 +28°C° 0 mm 4 m/S 748 mmHg 68%
12:00 +29°C° 0.1 mm 4 m/S 748 mmHg 66%
13:00 +29°C° 0.1 mm 4 m/S 748 mmHg 64%
14:00 +29°C° 0.1 mm 4 m/S 748 mmHg 63%
15:00 +29°C° 0.4 mm 4 m/S 748 mmHg 67%
16:00 +28°C° 0.4 mm 4 m/S 748 mmHg 71%
17:00 +28°C° 0.4 mm 4 m/S 748 mmHg 75%
18:00 +26°C° 0.4 mm 4 m/S 748 mmHg 80%
19:00 +25°C° 0.4 mm 4 m/S 748 mmHg 84%
20:00 +23°C° 0.4 mm 4 m/S 748 mmHg 89%
21:00 +22°C° 0.1 mm 4 m/S 748 mmHg 90%
22:00 +22°C° 0.1 mm 3 m/S 748 mmHg 91%
23:00 +21°C° 0.1 mm 3 m/S 748 mmHg 92%
Mehr zeigen

Wir brauchen deine Erlaubnis

Meteoprog und unser Service Anbieter werden persönliche Daten aufbewahren, so wie Cookies, Geräte Bezeichnung oder ähnliche Technologien von deinem Gerät und Prozess, so wie Persönliche Daten Inhalte und Werbungen, genauso wie social Media und den Verkehr zu analysieren.

  • Aufbewahrung und/oder Zugang zu deiner Geräte Informationen.

    Cookies, Geräte Bezeichnung oder andere Informationen, können aufbewahrt oder Zugang zu deinem Gerät erhalten, für den Grund, der oben angegeben wird.

  • Personalisierte Werbung und Inhalte, Messungen, Einblick in das Publikum und Produkt Entwicklung.

    Werbungen und Inhalte können personalisiert werden, basierend auf ein Profil. Mehr Daten können besser personalisierte Werbungen und Inhalte hinzufügen. Werbung und Inhalte können gezeigt und gemessen werden. Einblicke über das Publikum, welche die Werbung gesehen haben und den Inhalt, können abgeleitet werden. So wie Daten können genutzt werden, um es zu verbessern oder die Benutzer Erfahrung zu verbessern das System und die Software.

Wenn du “Ich stimme zu” klickst, erlaubst du uns, die Cookies zu benutzen die Geräte Bezeichnung, den Web oder ähnliche Technologien zu benutzen. Deine Settings, können in deinem Gerät bei deinem Browser geändert werden.

Für den bestimmten Zweck, berechtigten Interessen beruhen darauf, mehr als auf den Inhalt. Du kannst mehr darüber in unseren Privaten und Cookie Politik lesen.